Livingston, MT

8:42 PM MST on February 21, 2018 (GMT -0700)
Mission

Weather History for KLVM - January, 2014

Change the Weather History Date:

Thursday, January 2, 2014

  Actual Average Record
Temperature  
Mean Temperature 37 °F 26 °F  
Max Temperature 43 °F 36 °F 59 °F (2009)
Min Temperature 30 °F 16 °F -23 °F (1959)
Degree Days  
Heating Degree Days 28 39  
Month to date heating degree days 59 78  
Since 1 July heating degree days 3014 3243  
Cooling Degree Days 0 0  
Month to date cooling degree days 0  
Year to date cooling degree days 0  
Moisture  
Dew Point 19 °F    
Average Humidity 48    
Maximum Humidity 52    
Minimum Humidity 43    
Precipitation  
Precipitation 0.00 in 0.01 in 0.74 in (1990)
Month to date precipitation T 0.03  
Year to date precipitation T 0.03  
Sea Level Pressure  
Sea Level Pressure 30.08 in    
Wind  
Wind Speed 38 mph (SW)    
Max Wind Speed 58 mph    
Max Gust Speed 78 mph    
Visibility 10 miles    
Events      
T = Trace of Precipitation, MM = Missing Value Source: NWS Daily Summary

Daily Weather History Graph

Daily Weather History Graph

Search for Another Location

Airport or City:

Trip Planner

Search our weather history database for the weather conditions in past years. The results will help you decide how hot, cold, wet, or windy it might be!

Date:

Astronomy

Jan. 02, 2014 Rise Set
Actual Time 8:02 AM MST 4:49 PM MST
Civil Twilight 7:28 AM MST 5:23 PM MST
Nautical Twilight 6:50 AM MST 6:01 PM MST
Astronomical Twilight 6:14 AM MST 6:37 PM MST
Moon 8:40 AM MST (1/2) 6:57 PM MST (1/2)
Length of Visible Light 9h 55m
Length of Day
8h 46m
Waxing Crescent, 3% of the Moon is Illuminated
Jan 2
Waxing Crescent
Jan 7
First Quarter
Jan 15
Full
Jan 23
Last Quarter
Jan 30
New

Hourly Weather History & Observations

Time (MST) Temp. Windchill Dew Point Humidity Pressure Visibility Wind Dir Wind Speed Gust Speed Precip Events Conditions
12:53 AM 32.0 °F 17.6 °F 14.0 °F 48% 30.25 in 10.0 mi WSW 29.9 mph 42.6 mph N/A   Clear
1:53 AM 30.9 °F 15.3 °F 14.0 °F 50% 30.24 in 10.0 mi WSW 34.5 mph 46.0 mph N/A   Clear
2:53 AM 30.9 °F 15.9 °F 14.0 °F 50% 30.25 in 10.0 mi WSW 31.1 mph 44.9 mph N/A   Clear
3:53 AM 30.9 °F 13.9 °F 14.0 °F 50% 30.23 in 10.0 mi WSW 42.6 mph 52.9 mph N/A   Clear
4:53 AM 30.0 °F 14.7 °F 14.0 °F 51% 30.24 in 10.0 mi West 31.1 mph 39.1 mph N/A   Clear
5:53 AM 33.1 °F 18.7 °F 14.0 °F 46% 30.21 in 10.0 mi SW 32.2 mph 41.4 mph N/A   Clear
6:53 AM 34.0 °F 19.7 °F 15.1 °F 46% 30.20 in 10.0 mi SW 33.4 mph 46.0 mph N/A   Mostly Cloudy
7:53 AM 33.1 °F 18.4 °F 16.0 °F 50% 30.20 in 10.0 mi WSW 33.4 mph 51.8 mph N/A   Overcast
8:53 AM 33.1 °F 18.2 °F 17.1 °F 52% 30.20 in 10.0 mi SW 34.5 mph 43.7 mph N/A   Overcast
9:53 AM 36.0 °F 21.5 °F 18.0 °F 48% 30.17 in 10.0 mi SW 39.1 mph 49.5 mph N/A   Partly Cloudy
10:53 AM 36.0 °F 21.3 °F 19.0 °F 50% 30.17 in 10.0 mi SW 40.3 mph 52.9 mph N/A   Partly Cloudy
11:53 AM 37.0 °F 23.9 °F 19.9 °F 50% 30.13 in 10.0 mi SW 33.4 mph 49.5 mph N/A   Mostly Cloudy
12:53 PM 41.0 °F 28.2 °F 21.0 °F 45% 30.10 in 10.0 mi SW 41.4 mph 51.8 mph N/A   Overcast
1:53 PM 43.0 °F 33.5 °F 21.9 °F 43% 30.08 in 10.0 mi SW 24.2 mph 42.6 mph N/A   Overcast
2:53 PM 43.0 °F 31.5 °F 21.9 °F 43% 30.04 in 10.0 mi SSW 36.8 mph 50.6 mph N/A   Overcast
3:53 PM 42.1 °F 30.0 °F 23.0 °F 47% 30.04 in 10.0 mi SW 39.1 mph 49.5 mph N/A   Mostly Cloudy
4:53 PM 39.0 °F 25.9 °F 23.0 °F 53% 30.01 in 10.0 mi SSW 38.0 mph 48.3 mph N/A   Clear
5:53 PM 39.9 °F 28.6 °F 23.0 °F 51% 29.96 in 10.0 mi SW 28.8 mph 52.9 mph N/A   Clear
6:53 PM 39.0 °F 24.4 °F 23.0 °F 53% 29.95 in 10.0 mi SSW 49.5 mph 69.0 mph N/A   Clear
7:53 PM 39.0 °F 24.7 °F 21.9 °F 50% 29.92 in 10.0 mi SSW 47.2 mph 62.1 mph N/A   Clear
8:53 PM 39.9 °F 25.2 °F 23.0 °F 51% 29.85 in 10.0 mi SSW 54.1 mph 69.0 mph N/A   Clear
9:53 PM 39.9 °F 25.7 °F 23.0 °F 51% 29.84 in 10.0 mi SSW 49.5 mph 64.4 mph N/A   Clear
10:53 PM 41.0 °F 27.5 °F 23.0 °F 49% 29.81 in 10.0 mi SSW 47.2 mph 69.0 mph N/A   Clear
11:53 PM 41.0 °F 27.6 °F 24.1 °F 51% 29.78 in 10.0 mi SW 46.0 mph 61.0 mph N/A   Clear